Tracking 29892 objects as of 21-Nov-2024
HD Live streaming from Space Station
objects crossing your sky now

CZ-6A DEB

Track CZ-6A DEB now!
10-day predictions


NORAD ID: 54926
Int'l Code: 2022-151RP
Perigee: 831.2 km
Apogee: 924.9 km
Inclination: 98.8 °
Period: 102.4 minutes
Semi major axis: 7249 km
RCS: Unknown
Launch date: November 11, 2022
Source: People's Republic of China (PRC)
Launch site: Taiyaun Space Center, China (TSC)

Note: This is SATELLITE DEBRIS
Your satellite tracking list
Your tracking list is empty




NASA's NSSDC Master Catalog

Two Line Element Set (TLE):
1 54926U 22151RP  24324.80531307  .00001146  00000-0  70296-3 0  9998
2 54926  98.8016 316.7655 0064661 166.7540 193.5345 14.06636376103225
Source of the keplerian elements: AFSPC